Weather History for KPSC - July, 2013

Change the Weather History Date:

Monday, July 1, 2013

  Actual Average Record
Temperature  
Mean Temperature 87 °F 71 °F  
Max Temperature 107 °F 88 °F 107 °F (2013)
Min Temperature 66 °F 53 °F 44 °F (2011)
Degree Days  
Heating Degree Days 0 1  
Month to date heating degree days 0 1  
Since 1 June heating degree days 19 33  
Since 1 July heating degree days 0 1  
Cooling Degree Days 22 6  
Month to date cooling degree days 22 6  
Year to date cooling degree days 192 148  
Since 1 June cooling degree days 146 115  
Growing Degree Days 36 (Base 50)    
Moisture  
Dew Point 61 °F    
Average Humidity 50    
Maximum Humidity 78    
Minimum Humidity 22    
Precipitation  
Precipitation 0.00 in 0.02 in 0.43 in (1955)
Month to date precipitation 0.00 0.02  
Year to date precipitation 2.94 4.95  
Snow  
Snow 0.00 in - - ()
Snow Depth 0.00 in    
Sea Level Pressure  
Sea Level Pressure 29.83 in    
Wind  
Wind Speed 9 mph (NW)    
Max Wind Speed 18 mph    
Max Gust Speed 23 mph    
Visibility 10 miles    
Events      
T = Trace of Precipitation, MM = Missing Value Source: NWS Daily Summary

Daily Weather History Graph

Daily Weather History Graph

Search for Another Location

Airport or City:

Trip Planner

Search our weather history database for the weather conditions in past years. The results will help you decide how hot, cold, wet, or windy it might be!

Date:

Astronomy

Jul. 01, 2013 Rise Set
Actual Time 5:08 AM PDT 8:51 PM PDT
Civil Twilight 4:30 AM PDT 9:30 PM PDT
Nautical Twilight 3:38 AM PDT 10:22 PM PDT
Astronomical Twilight 2:25 AM PDT 11:34 PM PDT
Moon 12:54 AM PDT (7/1) 3:00 PM PDT (7/1)
Length of Visible Light 17h 00m
Length of Day
15h 43m
Waning Crescent, 34% of the Moon is Illuminated
Jul 1
Waning Crescent
Jul 8
New
Jul 15
First Quarter
Jul 22
Full
Jul 29
Last Quarter

Hourly Weather History & Observations

Time (PDT) Temp. Heat Index Dew Point Humidity Pressure Visibility Wind Dir Wind Speed Gust Speed Precip Events Conditions
12:53 AM 73.0 °F - 61.0 °F 66% 29.87 in 10.0 mi NNW 5.8 mph - N/A   Clear
1:53 AM 73.0 °F - 59.0 °F 61% 29.87 in 10.0 mi Variable 3.5 mph - N/A   Clear
2:53 AM 69.1 °F - 59.0 °F 70% 29.87 in 10.0 mi WNW 4.6 mph - N/A   Clear
3:53 AM 66.0 °F - 59.0 °F 78% 29.87 in 10.0 mi NW 5.8 mph - N/A   Clear
4:53 AM 71.1 °F - 57.9 °F 63% 29.88 in 10.0 mi NW 9.2 mph - N/A   Clear
5:53 AM 68.0 °F - 60.1 °F 76% 29.89 in 10.0 mi North 9.2 mph - N/A   Clear
6:53 AM 75.0 °F - 62.1 °F 64% 29.89 in 10.0 mi North 12.7 mph - N/A   Clear
7:53 AM 79.0 °F - 61.0 °F 54% 29.89 in 10.0 mi NNW 15.0 mph - N/A   Clear
8:53 AM 81.0 °F 81.9 °F 62.1 °F 52% 29.90 in 10.0 mi NNW 12.7 mph - N/A   Clear
9:53 AM 87.1 °F 87.5 °F 62.1 °F 43% 29.89 in 10.0 mi NNW 10.4 mph - N/A   Clear
10:53 AM 90.0 °F 91.3 °F 64.0 °F 42% 29.89 in 10.0 mi NNW 10.4 mph - N/A   Clear
11:53 AM 93.9 °F 95.6 °F 64.0 °F 37% 29.87 in 10.0 mi NNW 11.5 mph 17.3 mph N/A   Clear
12:53 PM 98.1 °F 101.2 °F 64.9 °F 34% 29.84 in 10.0 mi NNW 12.7 mph - N/A   Clear
1:53 PM 102.0 °F 105.9 °F 64.9 °F 30% 29.81 in 10.0 mi NNW 16.1 mph 21.9 mph N/A   Clear
2:53 PM 104.0 °F 106.6 °F 63.0 °F 26% 29.81 in 10.0 mi NNW 16.1 mph - N/A   Clear
3:53 PM 106.0 °F 107.8 °F 61.0 °F 23% 29.79 in 10.0 mi NW 16.1 mph - N/A   Clear
4:53 PM 106.0 °F 107.8 °F 61.0 °F 23% 29.77 in 10.0 mi NNW 15.0 mph - N/A   Clear
5:53 PM 106.0 °F 106.4 °F 59.0 °F 21% 29.77 in 8.0 mi NW 13.8 mph - N/A   Clear
6:53 PM 104.0 °F 105.3 °F 60.1 °F 24% 29.75 in 8.0 mi NNW 11.5 mph - N/A   Clear
7:53 PM 97.0 °F 98.3 °F 63.0 °F 32% 29.76 in 2.5 mi NW 9.2 mph - N/A   Haze
8:02 PM 96.8 °F 98.0 °F 62.6 °F 32% 29.77 in 10.0 mi West 9.2 mph - N/A   Clear
8:53 PM 95.0 °F 94.4 °F 59.0 °F 30% 29.78 in 10.0 mi West 10.4 mph - N/A   Clear
9:53 PM 91.0 °F 90.5 °F 60.1 °F 35% 29.80 in 10.0 mi WNW 5.8 mph - N/A   Clear
10:53 PM 84.9 °F 85.0 °F 61.0 °F 44% 29.81 in 10.0 mi Calm Calm - N/A   Clear
11:53 PM 79.0 °F - 64.0 °F 60% 29.83 in 10.0 mi NNE 3.5 mph - N/A   Clear